Temp
11 11 11 11 10 10 10 10 10 10 9 9 9 9 9 9 9 9 9 8 8 8 8 8 8 8 8 8 8 8 8 8 8 7 7 7 7 7 7 7 7 6 6 6 6 5 5 5 5 4 4 4 4 4 4 4 4 4 4 4 4 4 4 4 4 4 4 4 3
11 11 11 10 10 10 10 10 10 9 9 9 9 9 9 9 8 8 8 8 8 8 8 8 7 7 7 7 7 7 7 7 7 7 7 7 6 6 6 6 6 6 6 5 5 5 5 4 4 4 4 4 4 3 3 3 4 4 4 4 4 4 4 4 4 4 4 3 3
11 11 10 10 10 10 10 9 9 9 9 9 9 9 9 8 8 8 8 8 8 7 7 7 7 7 7 7 6 6 6 6 6 6 6 6 6 6 6 5 5 5 5 5 5 4 4 4 4 3 3 3 3 3 3 3 3 3 3 3 3 3 4 4 3 3 3 3 3
10 10 10 10 10 9 9 9 9 9 9 9 8 8 8 8 8 8 7 7 7 7 7 7 7 7 6 6 6 6 6 6 5 5 5 5 5 5 5 5 5 5 4 4 4 4 3 3 3 3 3 3 3 3 3 3 3 3 3 3 3 3 3 3 3 3 3 3 3
10 10 10 9 9 9 9 9 9 9 8 8 8 8 7 7 7 7 7 7 7 7 7 6 6 6 6 6 6 6 5 5 5 5 5 5 5 5 4 4 4 4 4 4 3 3 3 3 3 2 2 2 2 3 2 2 3 2 2 2 3 3 3 3 2 2 2 3 3
10 9 9 9 9 9 9 9 8 8 8 8 7 7 7 7 7 7 6 6 6 6 6 6 6 6 6 5 5 5 5 5 5 5 4 4 4 4 4 4 3 3 3 3 3 3 3 2 2 2 2 2 2 2 2 2 2 2 2 2 2 2 2 2 2 2 2 2 2
9 9 9 9 9 8 8 8 8 8 7 7 7 6 6 6 6 6 6 5 5 5 5 5 5 5 5 5 5 4 4 4 4 4 4 4 3 3 3 3 3 3 3 3 2 2 2 2 2 2 1 1 1 1 1 1 1 2 2 2 2 2 2 1 1 1 1 2 2
9 9 8 8 8 8 8 8 7 7 7 6 6 6 6 6 5 5 5 4 4 4 4 4 4 4 4 4 4 3 3 3 3 3 3 3 3 3 3 3 2 2 2 2 2 1 1 1 1 1 1 1 1 1 1 1 1 1 1 2 2 1 1 1 0 1 1 1 1
8 8 8 8 8 7 7 7 7 6 6 6 6 6 5 5 5 4 4 4 3 3 3 3 3 3 3 3 3 3 3 3 3 3 3 3 3 3 2 2 2 2 1 1 1 1 1 1 1 1 1 1 1 1 1 1 1 1 1 1 1 0 0 0 0 1 0 0 0
8 8 8 7 7 7 7 7 6 6 6 6 6 5 5 4 4 4 3 3 3 3 3 3 3 3 3 3 3 3 3 3 3 3 3 2 2 2 2 2 1 1 1 1 1 0 0 0 0 0 1 1 1 1 1 1 1 1 0 0 0 0 0 0 0 1 0 0 -0
7 7 7 7 7 7 7 7 6 6 6 6 5 5 4 4 3 3 3 3 3 3 3 3 3 3 3 3 3 3 3 3 2 2 2 2 2 1 1 1 1 1 1 0 0 0 -0 -0 0 0 0 0 1 1 1 1 1 0 0 0 0 0 0 0 0 0 0 0 -0
7 7 7 7 7 7 6 6 6 6 5 5 4 4 4 3 3 3 3 3 3 3 3 2 2 2 3 2 2 2 2 2 2 2 1 1 1 1 0 0 0 0 0 0 -0 -0 -0 -0 -0 -0 -0 -0 0 0 0 0 0 -0 -0 -0 0 0 0 -0 -0 -1 -1 -1 -1
7 7 7 7 6 6 6 6 5 5 5 4 4 4 3 3 3 3 2 2 2 2 2 2 2 2 2 2 2 2 2 1 1 1 1 1 0 0 0 0 0 -0 -0 -0 -1 -1 -1 -1 -1 -1 -0 -0 -0 -0 -0 -0 -0 -0 -0 -0 -0 -0 -0 -1 -1 -1 -1 -1 -1
7 7 7 6 6 6 6 5 5 5 4 4 4 3 3 3 3 2 2 2 2 2 1 1 1 1 1 1 1 1 1 1 1 1 1 0 0 0 -0 -0 -0 -0 -1 -1 -1 -1 -1 -1 -1 -1 -1 -1 -1 -1 -1 -1 -1 -1 -1 -1 -1 -1 -1 -1 -1 -1 -1 -1 -1
7 6 6 6 6 5 5 5 4 4 4 3 3 3 3 2 2 2 2 2 1 1 1 1 1 1 1 1 1 1 1 1 1 1 0 0 -0 -0 -0 -1 -1 -1 -1 -1 -1 -1 -1 -1 -1 -1 -1 -1 -1 -1 -1 -1 -1 -1 -1 -2 -2 -2 -2 -2 -2 -2 -2 -2 -2
6 6 6 5 5 5 5 4 4 4 3 3 3 3 2 2 2 2 2 1 1 1 1 1 1 1 1 0 1 1 1 0 0 -0 -0 -0 -1 -1 -1 -1 -1 -1 -1 -1 -1 -1 -1 -1 -1 -1 -1 -1 -2 -2 -2 -2 -2 -2 -2 -3 -3 -3 -3 -3 -3 -3 -3 -3 -3
6 5 5 5 5 4 4 4 3 3 3 3 2 2 2 2 2 2 1 1 1 1 0 0 0 0 0 0 0 0 -0 -0 -1 -1 -1 -1 -1 -1 -1 -1 -2 -2 -2 -2 -2 -2 -2 -2 -2 -2 -2 -2 -2 -2 -2 -2 -3 -3 -3 -3 -3 -4 -4 -4 -4 -4 -3 -3 -3
5 5 5 5 4 4 3 3 3 3 2 2 2 2 2 2 2 2 1 1 0 0 0 -0 -0 -0 -0 -0 -0 -1 -1 -1 -2 -2 -2 -2 -2 -2 -2 -2 -2 -2 -2 -2 -2 -2 -2 -2 -2 -2 -2 -3 -3 -3 -3 -3 -3 -3 -3 -4 -4 -4 -4 -4 -4 -4 -4 -4 -4
5 5 4 4 4 3 3 3 2 2 2 2 2 2 2 1 1 1 1 0 0 0 -0 -0 -0 -1 -1 -1 -1 -1 -1 -2 -2 -2 -3 -3 -3 -3 -3 -3 -3 -3 -3 -3 -3 -3 -3 -3 -3 -3 -3 -3 -3 -3 -3 -3 -3 -4 -4 -4 -4 -4 -4 -4 -4 -4 -4 -4 -4
4 4 4 4 3 3 2 2 2 2 2 2 1 1 1 1 1 1 1 0 -0 -0 -0 -1 -1 -1 -1 -1 -1 -2 -2 -2 -2 -3 -3 -3 -3 -3 -4 -4 -3 -3 -3 -3 -3 -3 -3 -3 -3 -3 -3 -4 -4 -4 -4 -4 -4 -4 -4 -4 -4 -4 -5 -5 -4 -4 -4 -4 -4
4 4 3 3 3 2 2 2 2 2 1 1 1 1 1 1 1 0 0 -0 -0 -1 -1 -1 -1 -1 -1 -2 -2 -2 -2 -2 -3 -3 -3 -3 -3 -3 -3 -3 -3 -3 -3 -3 -4 -4 -4 -4 -4 -4 -4 -4 -4 -4 -4 -4 -4 -4 -5 -5 -5 -5 -5 -5 -5 -5 -5 -5 -5
3 3 3 2 2 2 2 2 2 1 1 1 1 1 1 1 0 0 -0 -1 -1 -1 -1 -1 -2 -2 -2 -2 -2 -2 -3 -3 -3 -3 -3 -3 -3 -3 -3 -3 -3 -4 -4 -4 -4 -4 -4 -4 -4 -4 -4 -4 -5 -5 -5 -5 -5 -5 -5 -5 -5 -5 -5 -5 -5 -5 -5 -6 -6
3 3 2 2 2 2 2 1 1 1 1 1 1 1 0 0 0 -0 -1 -1 -1 -1 -2 -2 -2 -2 -2 -2 -3 -3 -3 -3 -3 -3 -3 -3 -3 -3 -3 -3 -4 -4 -4 -4 -4 -4 -4 -5 -5 -5 -5 -5 -5 -5 -5 -5 -5 -5 -5 -5 -5 -5 -5 -6 -6 -6 -6 -6 -6
2 2 2 2 1 1 1 1 1 1 1 1 0 0 0 -0 -0 -1 -1 -1 -2 -2 -2 -2 -3 -3 -3 -3 -3 -3 -3 -3 -3 -4 -4 -4 -4 -4 -4 -4 -4 -4 -4 -5 -5 -5 -5 -5 -5 -5 -5 -5 -5 -5 -6 -6 -6 -6 -6 -6 -6 -6 -6 -6 -6 -6 -6 -6 -6
2 2 1 1 1 1 1 1 1 1 0 0 0 -0 -0 -1 -1 -1 -1 -2 -2 -2 -3 -3 -3 -3 -3 -3 -3 -4 -4 -4 -4 -4 -4 -4 -4 -4 -4 -4 -4 -5 -5 -5 -5 -5 -5 -5 -5 -5 -5 -6 -6 -6 -6 -6 -6 -6 -6 -6 -6 -6 -6 -6 -6 -6 -6 -6 -6
1 1 1 1 1 1 1 1 0 0 0 -0 -0 -0 -1 -1 -1 -1 -2 -2 -2 -3 -3 -3 -3 -4 -4 -4 -4 -4 -4 -4 -4 -4 -5 -5 -5 -5 -5 -5 -5 -5 -5 -5 -5 -5 -5 -5 -6 -6 -6 -6 -6 -6 -6 -6 -6 -6 -6 -6 -6 -6 -6 -6 -6 -6 -6 -6 -6
1 1 1 1 1 1 0 0 0 -0 -0 -0 -1 -1 -1 -1 -2 -2 -2 -3 -3 -3 -3 -4 -4 -4 -4 -4 -4 -4 -4 -4 -5 -5 -5 -5 -5 -5 -5 -5 -5 -5 -5 -5 -6 -6 -6 -6 -6 -6 -6 -6 -6 -6 -6 -6 -6 -6 -6 -6 -6 -6 -6 -6 -6 -6 -6 -7 -7
1 1 0 0 0 0 0 -0 -0 -0 -1 -1 -1 -1 -2 -2 -2 -2 -3 -3 -3 -3 -4 -4 -4 -4 -4 -4 -4 -4 -4 -4 -5 -5 -5 -5 -5 -5 -5 -5 -5 -5 -5 -5 -6 -6 -6 -6 -6 -6 -6 -6 -6 -6 -6 -6 -6 -6 -6 -6 -7 -7 -7 -7 -7 -7 -7 -7 -7
1 1 0 0 0 -0 -0 -0 -0 -1 -1 -1 -1 -2 -2 -2 -3 -3 -3 -3 -4 -4 -4 -4 -4 -4 -4 -4 -4 -4 -4 -4 -4 -5 -5 -5 -5 -5 -5 -5 -5 -5 -5 -6 -6 -6 -6 -6 -6 -6 -6 -6 -6 -6 -6 -6 -6 -6 -6 -7 -7 -7 -7 -7 -7 -7 -7 -7 -7
1 0 0 -0 -0 -0 -0 -1 -1 -1 -1 -2 -2 -2 -2 -3 -3 -3 -3 -4 -4 -4 -4 -4 -4 -4 -4 -4 -4 -4 -4 -4 -4 -5 -5 -5 -5 -5 -5 -5 -5 -5 -5 -6 -6 -6 -6 -6 -6 -6 -6 -6 -6 -6 -6 -6 -6 -6 -7 -7 -7 -7 -7 -7 -7 -7 -7 -8 -8
0 0 -0 -0 -1 -1 -1 -1 -1 -2 -2 -2 -2 -3 -3 -3 -3 -3 -4 -4 -4 -4 -4 -4 -4 -4 -4 -4 -4 -4 -4 -4 -4 -4 -5 -5 -5 -5 -5 -5 -5 -5 -6 -6 -6 -6 -6 -6 -6 -6 -6 -6 -6 -7 -7 -7 -7 -7 -7 -7 -7 -7 -7 -7 -7 -8 -8 -8 -8
0 -0 -0 -1 -1 -1 -1 -2 -2 -2 -2 -3 -3 -3 -3 -3 -3 -3 -4 -4 -4 -4 -4 -4 -4 -4 -4 -4 -4 -4 -4 -4 -4 -4 -5 -5 -5 -5 -5 -5 -5 -6 -6 -6 -6 -6 -6 -6 -6 -6 -7 -7 -7 -7 -7 -7 -7 -7 -7 -7 -7 -7 -8 -8 -8 -8 -8 -8 -8
-0 -0 -1 -1 -1 -2 -2 -2 -2 -2 -3 -3 -3 -3 -3 -4 -4 -3 -3 -4 -4 -4 -4 -4 -4 -4 -4 -4 -4 -4 -4 -4 -4 -5 -5 -5 -5 -5 -5 -5 -5 -6 -6 -6 -6 -6 -6 -6 -6 -7 -7 -7 -7 -7 -7 -7 -7 -8 -8 -8 -8 -8 -8 -8 -8 -8 -8 -8 -9
-1 -1 -1 -1 -2 -2 -2 -2 -3 -3 -3 -3 -3 -4 -4 -4 -4 -3 -3 -3 -4 -4 -4 -4 -4 -4 -4 -4 -4 -4 -4 -5 -5 -5 -5 -5 -5 -5 -5 -5 -6 -6 -6 -6 -6 -6 -6 -6 -7 -7 -7 -7 -7 -7 -7 -7 -7 -8 -8 -8 -8 -8 -8 -9 -9 -9 -9 -9 -9
-1 -1 -2 -2 -2 -2 -3 -3 -3 -3 -3 -3 -4 -4 -4 -4 -4 -3 -3 -4 -4 -4 -4 -4 -4 -4 -4 -4 -4 -5 -5 -5 -5 -5 -5 -5 -5 -5 -5 -6 -6 -6 -6 -6 -6 -6 -6 -7 -7 -7 -7 -7 -7 -7 -7 -7 -7 -8 -8 -8 -8 -9 -9 -9 -9 -9 -9 -9 -9
-1 -2 -2 -2 -3 -3 -3 -3 -3 -3 -4 -4 -4 -4 -4 -4 -4 -4 -4 -4 -4 -4 -4 -4 -4 -4 -4 -4 -5 -5 -5 -5 -5 -5 -5 -5 -6 -6 -6 -6 -6 -6 -6 -6 -7 -7 -7 -7 -7 -7 -7 -7 -7 -7 -7 -8 -8 -8 -8 -8 -9 -9 -9 -9 -9 -10 -10 -10 -10
-2 -2 -2 -3 -3 -3 -3 -3 -4 -4 -4 -4 -4 -4 -4 -4 -4 -4 -4 -4 -4 -4 -4 -4 -4 -4 -4 -5 -5 -5 -5 -5 -5 -6 -6 -6 -6 -6 -6 -6 -6 -6 -7 -7 -7 -7 -7 -7 -7 -7 -7 -7 -8 -8 -8 -8 -8 -8 -8 -9 -9 -9 -10 -10 -10 -10 -10 -10 -10
-2 -2 -3 -3 -3 -3 -3 -4 -4 -4 -4 -4 -4 -4 -4 -4 -4 -4 -4 -4 -4 -4 -4 -4 -4 -5 -5 -5 -5 -5 -5 -5 -6 -6 -6 -6 -6 -6 -6 -7 -7 -7 -7 -7 -7 -7 -7 -7 -7 -8 -8 -8 -8 -8 -8 -8 -9 -9 -9 -9 -9 -10 -10 -10 -10 -10 -10 -10 -10
-2 -2 -3 -3 -3 -3 -3 -3 -3 -3 -3 -4 -4 -4 -4 -4 -4 -4 -4 -4 -4 -4 -4 -5 -5 -5 -5 -5 -5 -5 -5 -6 -6 -6 -6 -6 -7 -7 -7 -7 -7 -7 -7 -7 -7 -8 -8 -8 -8 -8 -8 -8 -8 -9 -9 -9 -9 -9 -9 -10 -10 -10 -10 -10 -10 -10 -11 -11 -11
-2 -3 -3 -3 -3 -3 -3 -3 -3 -3 -3 -4 -4 -4 -4 -4 -4 -4 -4 -4 -4 -4 -5 -5 -5 -5 -5 -5 -5 -6 -6 -6 -6 -6 -6 -7 -7 -7 -7 -7 -7 -7 -8 -8 -8 -8 -8 -8 -8 -9 -9 -9 -9 -9 -9 -9 -10 -10 -10 -10 -10 -11 -11 -11 -11 -11 -11 -11 -11
-3 -3 -3 -3 -3 -3 -3 -3 -3 -3 -3 -4 -4 -4 -4 -4 -4 -4 -4 -4 -4 -5 -5 -5 -5 -5 -5 -5 -6 -6 -6 -6 -6 -6 -6 -7 -7 -7 -7 -7 -8 -8 -8 -8 -8 -8 -8 -9 -9 -9 -9 -9 -9 -10 -10 -10 -10 -10 -11 -11 -11 -11 -11 -11 -11 -11 -11 -11 -11
Height
1531 1531 1530 1530 1529 1529 1528 1528 1527 1526 1525 1525 1524 1523 1522 1521 1520 1519 1519 1518 1517 1515 1514 1513 1512 1511 1510 1509 1508 1507 1506 1505 1505 1504 1503 1502 1502 1501 1500 1499 1498 1497 1496 1495 1494 1493 1492 1491 1490 1488 1487 1486 1485 1484 1483 1483 1482 1481 1480 1479 1479 1478 1477 1477 1475 1475 1474 1473 1472
1531 1530 1530 1529 1528 1528 1527 1526 1526 1525 1525 1524 1523 1522 1521 1520 1519 1518 1517 1516 1515 1514 1513 1512 1510 1510 1509 1507 1506 1506 1505 1504 1503 1502 1502 1501 1500 1499 1498 1497 1496 1495 1495 1493 1492 1491 1490 1489 1487 1486 1485 1484 1483 1482 1480 1480 1479 1478 1477 1476 1476 1475 1475 1474 1473 1471 1470 1470 1470
1530 1530 1529 1528 1527 1527 1526 1525 1525 1524 1523 1522 1521 1520 1520 1518 1518 1516 1515 1515 1514 1512 1511 1510 1509 1508 1507 1505 1505 1504 1503 1502 1501 1500 1500 1499 1498 1497 1496 1495 1495 1494 1493 1491 1490 1489 1488 1487 1485 1484 1483 1481 1480 1479 1478 1477 1477 1476 1475 1474 1474 1473 1472 1471 1469 1468 1467 1467 1466
1529 1529 1528 1527 1527 1526 1525 1525 1524 1523 1522 1521 1520 1519 1518 1517 1516 1515 1514 1513 1512 1511 1509 1508 1507 1506 1505 1504 1503 1502 1501 1500 1499 1498 1498 1497 1496 1495 1495 1494 1493 1492 1491 1490 1488 1487 1486 1485 1484 1482 1481 1479 1478 1477 1476 1475 1475 1474 1473 1472 1471 1470 1469 1467 1465 1465 1465 1464 1463
1529 1528 1527 1527 1526 1525 1525 1524 1523 1521 1520 1520 1518 1517 1516 1515 1515 1514 1513 1511 1510 1509 1508 1506 1505 1504 1503 1502 1501 1500 1499 1498 1498 1497 1496 1495 1495 1494 1493 1492 1491 1490 1489 1487 1486 1485 1484 1483 1481 1480 1479 1478 1476 1475 1474 1474 1473 1471 1470 1470 1469 1467 1465 1463 1462 1462 1461 1460 1460
1528 1527 1527 1526 1525 1524 1523 1522 1521 1520 1519 1518 1517 1516 1515 1514 1513 1512 1511 1510 1509 1508 1506 1505 1504 1502 1501 1500 1500 1499 1498 1497 1496 1496 1495 1494 1493 1492 1491 1490 1489 1488 1486 1485 1484 1483 1482 1480 1479 1478 1477 1475 1474 1473 1472 1472 1470 1469 1468 1467 1465 1464 1463 1461 1460 1459 1458 1458 1457
1528 1527 1526 1525 1524 1523 1522 1521 1520 1519 1518 1517 1516 1515 1514 1513 1512 1511 1510 1508 1507 1506 1505 1504 1502 1501 1500 1499 1498 1498 1497 1496 1495 1494 1493 1492 1491 1490 1489 1488 1486 1485 1484 1483 1482 1480 1480 1479 1477 1476 1475 1473 1472 1470 1470 1469 1468 1467 1465 1464 1463 1461 1460 1458 1457 1456 1455 1455 1454
1527 1526 1525 1524 1523 1522 1521 1520 1520 1519 1517 1516 1515 1514 1513 1511 1510 1509 1508 1507 1506 1505 1504 1503 1501 1500 1499 1498 1497 1496 1495 1494 1493 1492 1491 1490 1489 1488 1486 1485 1484 1483 1482 1480 1479 1478 1477 1476 1475 1474 1472 1470 1468 1467 1466 1466 1465 1464 1463 1462 1460 1459 1457 1454 1453 1452 1452 1452 1452
1526 1525 1525 1524 1523 1521 1520 1520 1519 1518 1516 1515 1514 1513 1511 1510 1508 1507 1506 1505 1505 1504 1503 1502 1501 1500 1498 1497 1496 1495 1493 1492 1491 1490 1489 1488 1487 1486 1484 1483 1481 1480 1479 1478 1477 1476 1475 1474 1472 1470 1469 1467 1466 1465 1464 1464 1463 1463 1461 1460 1458 1457 1456 1453 1451 1450 1451 1451 1452
1525 1524 1524 1523 1522 1521 1520 1519 1518 1516 1515 1514 1512 1511 1510 1508 1507 1506 1505 1505 1504 1503 1502 1501 1500 1499 1498 1496 1495 1494 1492 1491 1490 1489 1488 1486 1485 1484 1482 1481 1479 1478 1477 1475 1475 1474 1472 1471 1469 1467 1466 1465 1464 1463 1462 1462 1461 1460 1460 1458 1457 1455 1454 1453 1451 1451 1451 1451 1451
1525 1524 1523 1522 1521 1520 1519 1518 1516 1515 1514 1513 1511 1510 1508 1507 1506 1506 1505 1505 1504 1503 1502 1501 1500 1499 1497 1495 1494 1492 1491 1490 1489 1487 1486 1485 1484 1482 1481 1479 1478 1476 1475 1474 1473 1472 1470 1468 1466 1465 1464 1462 1462 1461 1460 1460 1459 1459 1458 1456 1455 1454 1453 1452 1451 1450 1451 1451 1451
1524 1523 1523 1522 1520 1519 1517 1516 1515 1514 1512 1511 1510 1509 1508 1507 1506 1505 1505 1504 1503 1502 1501 1500 1499 1498 1496 1494 1493 1491 1490 1488 1487 1486 1485 1483 1482 1481 1479 1478 1476 1475 1473 1472 1471 1470 1468 1466 1465 1463 1462 1460 1460 1459 1458 1458 1458 1457 1456 1455 1454 1453 1452 1451 1451 1451 1451 1451 1450
1524 1523 1522 1520 1519 1517 1516 1515 1514 1512 1511 1510 1509 1508 1507 1506 1505 1505 1504 1503 1502 1501 1500 1499 1498 1496 1495 1493 1491 1490 1488 1486 1485 1484 1483 1482 1480 1479 1478 1476 1475 1473 1472 1470 1470 1468 1467 1465 1463 1462 1460 1459 1458 1458 1457 1457 1456 1456 1455 1454 1453 1452 1452 1452 1451 1451 1450 1450 1450
1523 1522 1520 1519 1517 1516 1515 1514 1513 1511 1510 1509 1508 1507 1506 1505 1504 1503 1502 1501 1500 1499 1498 1497 1496 1495 1493 1491 1490 1488 1486 1484 1483 1482 1481 1480 1480 1478 1477 1475 1473 1472 1471 1470 1469 1467 1466 1464 1463 1461 1460 1459 1458 1457 1456 1456 1456 1455 1455 1454 1453 1452 1452 1452 1451 1451 1450 1449 1449
1521 1520 1519 1517 1516 1515 1514 1513 1511 1510 1509 1508 1507 1506 1505 1504 1503 1502 1500 1500 1498 1497 1496 1495 1494 1492 1491 1490 1488 1486 1484 1483 1482 1481 1480 1479 1478 1477 1476 1475 1473 1472 1471 1470 1469 1468 1466 1465 1463 1462 1460 1459 1458 1456 1455 1455 1455 1455 1454 1453 1452 1452 1451 1450 1450 1449 1449 1448 1447
1520 1519 1517 1516 1515 1514 1512 1511 1510 1509 1508 1507 1506 1505 1504 1503 1501 1500 1499 1498 1497 1496 1495 1493 1492 1491 1489 1487 1486 1484 1483 1482 1481 1480 1480 1479 1477 1476 1475 1474 1473 1472 1471 1470 1469 1467 1466 1465 1464 1462 1461 1459 1458 1456 1455 1454 1454 1454 1453 1453 1452 1451 1450 1449 1449 1448 1447 1447 1446
1518 1517 1516 1515 1514 1513 1511 1510 1509 1508 1507 1506 1505 1504 1503 1501 1500 1499 1498 1497 1496 1495 1493 1491 1490 1489 1488 1486 1484 1483 1482 1481 1480 1480 1479 1478 1477 1475 1474 1473 1472 1471 1470 1469 1468 1467 1465 1465 1463 1462 1461 1459 1458 1456 1455 1454 1454 1453 1453 1452 1451 1451 1450 1449 1448 1447 1447 1446 1445
1517 1516 1515 1514 1512 1511 1510 1509 1508 1507 1506 1505 1504 1503 1502 1500 1499 1498 1496 1495 1495 1493 1492 1490 1489 1488 1487 1485 1484 1482 1482 1481 1480 1479 1478 1477 1476 1475 1474 1472 1471 1470 1469 1468 1467 1465 1465 1463 1462 1461 1460 1459 1457 1456 1455 1454 1454 1453 1453 1452 1451 1450 1449 1448 1447 1447 1446 1445 1445
1516 1515 1514 1512 1511 1510 1509 1508 1507 1506 1505 1504 1503 1502 1500 1499 1498 1497 1495 1494 1493 1492 1491 1490 1488 1487 1485 1484 1483 1482 1481 1480 1479 1478 1477 1476 1475 1474 1473 1471 1470 1469 1468 1467 1466 1465 1464 1463 1461 1460 1459 1458 1457 1456 1455 1454 1453 1453 1452 1451 1450 1450 1448 1447 1446 1446 1445 1444 1444
1515 1514 1512 1511 1510 1509 1508 1507 1506 1505 1504 1503 1502 1500 1499 1498 1497 1495 1494 1493 1492 1491 1490 1489 1487 1486 1485 1484 1482 1481 1480 1480 1478 1477 1476 1475 1474 1473 1472 1471 1470 1468 1467 1466 1465 1464 1463 1462 1460 1460 1458 1457 1456 1455 1454 1454 1453 1452 1451 1450 1450 1449 1447 1446 1445 1445 1444 1443 1442
1514 1512 1511 1510 1509 1508 1507 1506 1505 1504 1503 1502 1501 1500 1498 1497 1496 1495 1494 1492 1491 1490 1489 1488 1486 1485 1484 1483 1481 1480 1480 1479 1478 1476 1475 1474 1473 1472 1471 1470 1469 1467 1466 1465 1464 1463 1462 1461 1460 1459 1457 1456 1455 1455 1454 1453 1452 1451 1451 1450 1449 1448 1447 1446 1445 1444 1443 1442 1441
1512 1511 1510 1509 1508 1507 1506 1505 1505 1503 1502 1501 1500 1498 1497 1496 1495 1494 1493 1492 1490 1489 1488 1486 1485 1484 1483 1482 1481 1480 1479 1478 1477 1476 1475 1474 1473 1472 1471 1470 1468 1467 1465 1464 1463 1462 1461 1460 1459 1458 1457 1456 1455 1454 1453 1453 1452 1451 1450 1449 1448 1447 1446 1445 1445 1443 1443 1442 1441
1511 1510 1509 1508 1507 1506 1505 1505 1503 1502 1501 1500 1499 1497 1496 1495 1494 1493 1492 1491 1490 1488 1487 1486 1485 1484 1482 1481 1480 1479 1478 1477 1476 1476 1475 1474 1473 1471 1470 1469 1468 1466 1465 1464 1463 1462 1460 1460 1459 1458 1457 1456 1455 1454 1453 1452 1451 1450 1449 1448 1447 1446 1445 1445 1444 1443 1442 1442 1441
1510 1509 1508 1507 1506 1505 1504 1503 1502 1501 1500 1499 1497 1496 1495 1494 1493 1492 1491 1490 1488 1487 1486 1485 1484 1483 1482 1481 1480 1479 1478 1477 1476 1475 1474 1473 1472 1471 1470 1469 1467 1466 1465 1464 1463 1461 1460 1459 1458 1457 1456 1455 1455 1454 1453 1452 1451 1450 1449 1448 1446 1445 1445 1444 1443 1443 1442 1441 1441
1509 1508 1507 1506 1505 1504 1503 1502 1501 1500 1499 1497 1496 1495 1494 1493 1491 1490 1490 1489 1488 1486 1486 1485 1484 1483 1482 1481 1480 1479 1478 1477 1475 1475 1473 1472 1471 1470 1469 1468 1467 1466 1465 1464 1462 1461 1460 1460 1458 1457 1456 1455 1455 1454 1453 1452 1450 1449 1448 1447 1446 1445 1444 1443 1442 1442 1441 1440 1440
1508 1507 1506 1505 1504 1503 1502 1501 1500 1499 1497 1496 1495 1494 1492 1491 1490 1490 1489 1488 1487 1486 1485 1484 1483 1482 1481 1480 1479 1478 1477 1476 1475 1474 1473 1471 1470 1469 1468 1467 1466 1465 1464 1463 1462 1461 1460 1459 1458 1457 1456 1455 1454 1453 1452 1451 1450 1449 1448 1447 1446 1445 1443 1442 1441 1441 1440 1440 1439
1507 1506 1505 1504 1503 1502 1501 1500 1499 1497 1496 1495 1494 1493 1491 1490 1489 1489 1488 1487 1486 1485 1485 1484 1483 1482 1481 1480 1479 1478 1476 1475 1474 1473 1472 1471 1470 1468 1467 1466 1465 1464 1464 1463 1462 1461 1460 1459 1458 1457 1456 1455 1454 1453 1451 1450 1449 1448 1447 1446 1445 1444 1443 1442 1441 1440 1439 1439 1438
1506 1505 1505 1503 1502 1501 1500 1499 1497 1496 1495 1494 1493 1492 1490 1490 1489 1488 1487 1486 1485 1485 1484 1483 1482 1481 1480 1479 1478 1477 1476 1475 1474 1473 1471 1470 1469 1468 1467 1466 1465 1464 1463 1462 1461 1460 1460 1459 1458 1456 1455 1454 1453 1452 1450 1449 1448 1447 1446 1445 1444 1443 1442 1441 1440 1439 1438 1437 1437
1506 1505 1504 1502 1501 1500 1499 1498 1496 1495 1494 1493 1492 1491 1490 1489 1488 1487 1486 1486 1485 1484 1483 1482 1481 1481 1480 1479 1478 1477 1476 1475 1473 1472 1471 1470 1469 1468 1467 1466 1465 1463 1463 1462 1461 1460 1459 1458 1457 1456 1455 1454 1452 1451 1450 1449 1447 1446 1445 1444 1443 1442 1441 1440 1440 1439 1438 1437 1436
1505 1504 1503 1501 1500 1499 1498 1496 1495 1494 1493 1492 1491 1490 1489 1488 1488 1487 1486 1485 1485 1484 1483 1482 1481 1480 1480 1479 1478 1476 1475 1474 1473 1472 1471 1470 1469 1468 1467 1465 1464 1463 1462 1461 1460 1459 1458 1457 1456 1455 1454 1453 1452 1450 1449 1448 1447 1446 1445 1444 1443 1442 1440 1440 1439 1438 1437 1436 1435
1504 1503 1502 1501 1499 1498 1497 1495 1495 1494 1493 1492 1491 1490 1489 1488 1487 1487 1486 1485 1484 1484 1483 1482 1481 1480 1479 1478 1477 1476 1475 1474 1473 1472 1471 1470 1469 1468 1466 1465 1464 1462 1461 1460 1460 1459 1457 1456 1455 1454 1453 1452 1451 1450 1449 1447 1446 1445 1444 1443 1442 1441 1440 1439 1438 1437 1436 1435 1434
1503 1502 1501 1500 1498 1497 1496 1495 1494 1493 1492 1491 1490 1490 1489 1488 1487 1486 1486 1485 1484 1483 1482 1481 1481 1480 1479 1478 1477 1476 1475 1474 1473 1471 1470 1469 1468 1467 1466 1465 1463 1462 1461 1460 1459 1458 1457 1455 1455 1453 1452 1451 1450 1449 1447 1446 1445 1444 1443 1442 1440 1440 1439 1438 1437 1436 1435 1434 1433
1502 1501 1500 1499 1498 1496 1495 1495 1494 1493 1492 1491 1490 1489 1489 1488 1487 1486 1485 1485 1484 1483 1482 1481 1480 1480 1479 1478 1476 1475 1475 1473 1472 1471 1470 1469 1467 1466 1465 1464 1462 1461 1460 1459 1458 1457 1455 1455 1453 1452 1451 1450 1449 1447 1446 1445 1444 1443 1442 1440 1439 1438 1437 1436 1435 1435 1434 1433 1432
1501 1500 1499 1498 1497 1496 1495 1495 1494 1493 1492 1491 1490 1489 1488 1488 1487 1486 1485 1484 1484 1483 1482 1481 1480 1480 1479 1477 1476 1475 1474 1473 1471 1470 1469 1468 1466 1465 1464 1463 1461 1460 1459 1458 1457 1455 1454 1453 1452 1451 1450 1449 1447 1446 1445 1444 1443 1441 1440 1439 1438 1437 1436 1435 1434 1433 1432 1432 1430
1500 1499 1498 1497 1496 1496 1495 1494 1493 1492 1491 1490 1490 1489 1488 1487 1486 1486 1485 1484 1484 1483 1482 1481 1480 1479 1478 1477 1476 1475 1473 1472 1470 1469 1468 1467 1465 1464 1463 1462 1460 1459 1458 1457 1455 1454 1453 1452 1451 1450 1449 1447 1446 1445 1444 1443 1441 1440 1439 1438 1437 1435 1434 1433 1432 1431 1431 1430 1429
1500 1499 1498 1497 1496 1495 1495 1494 1493 1492 1491 1490 1490 1489 1488 1487 1486 1485 1485 1484 1483 1482 1481 1480 1480 1479 1478 1476 1475 1474 1473 1471 1470 1469 1467 1466 1465 1463 1462 1461 1460 1458 1457 1455 1454 1453 1452 1450 1450 1448 1447 1446 1445 1444 1442 1441 1440 1439 1438 1437 1435 1434 1433 1432 1431 1430 1429 1428 1427
1499 1498 1497 1496 1495 1495 1494 1493 1492 1492 1491 1490 1490 1489 1488 1487 1486 1485 1485 1484 1483 1482 1481 1480 1479 1478 1477 1476 1475 1474 1472 1471 1470 1468 1467 1465 1464 1462 1461 1460 1459 1457 1456 1454 1453 1452 1450 1450 1448 1447 1446 1445 1443 1442 1441 1440 1439 1437 1436 1435 1434 1433 1432 1431 1430 1429 1428 1427 1426
1498 1497 1497 1496 1495 1494 1493 1493 1492 1491 1491 1490 1489 1488 1487 1486 1486 1485 1484 1483 1482 1481 1480 1479 1478 1477 1476 1475 1474 1473 1472 1470 1469 1467 1466 1464 1463 1461 1460 1459 1457 1456 1455 1453 1452 1451 1450 1448 1447 1446 1445 1443 1442 1440 1439 1438 1437 1436 1435 1434 1432 1431 1430 1429 1428 1427 1426 1425 1425
1497 1497 1496 1495 1495 1494 1493 1493 1492 1491 1490 1490 1489 1488 1487 1486 1485 1485 1484 1483 1482 1481 1480 1479 1478 1477 1475 1475 1473 1472 1471 1470 1468 1467 1465 1464 1462 1461 1459 1458 1456 1455 1454 1453 1451 1450 1449 1447 1446 1445 1443 1442 1441 1440 1438 1437 1436 1435 1433 1432 1431 1430 1429 1428 1427 1426 1425 1424 1423
1497 1496 1495 1495 1494 1494 1493 1492 1492 1491 1490 1489 1488 1487 1486 1485 1485 1484 1483 1482 1481 1480 1479 1478 1477 1476 1475 1474 1473 1471 1470 1469 1467 1466 1465 1464 1462 1460 1459 1457 1456 1454 1453 1452 1450 1449 1448 1446 1445 1443 1442 1441 1440 1438 1437 1435 1434 1433 1432 1430 1429 1428 1427 1426 1425 1424 1423 1422 1421
1496 1495 1495 1495 1494 1494 1493 1492 1491 1490 1489 1488 1487 1486 1485 1485 1484 1483 1482 1481 1480 1479 1478 1477 1476 1475 1474 1473 1472 1470 1469 1468 1467 1465 1465 1463 1462 1460 1459 1457 1455 1454 1452 1451 1449 1448 1446 1445 1443 1442 1441 1440 1438 1437 1435 1434 1432 1431 1430 1429 1427 1426 1425 1424 1423 1422 1421 1420 1419
Wind_Speed
9 10 10 11 11 13 14 15 17 18 20 22 24 26 28 29 30 29 28 27 27 26 26 25 25 24 24 24 24 25 26 27 27 28 29 30 31 31 32 33 33 34 34 34 34 34 34 35 35 34 33 32 31 30 31 31 32 32 32 32 33 34 35 35 35 35 36 36 35
12 12 12 12 13 15 17 18 20 22 24 26 28 30 31 31 30 29 28 26 25 25 24 24 24 24 24 24 25 26 27 28 29 30 31 32 32 33 33 34 34 35 35 35 36 36 36 35 34 32 31 30 29 29 30 30 30 30 31 32 33 34 35 36 37 38 38 39 38
14 14 15 16 17 19 21 23 25 28 30 31 32 32 32 31 29 28 27 26 25 24 24 24 24 24 25 26 27 28 29 29 30 31 31 32 33 33 34 35 35 36 36 36 36 35 34 33 31 30 30 30 30 30 30 31 30 30 30 31 32 33 35 37 38 38 39 41 42
17 18 19 20 22 23 26 28 30 32 32 33 32 32 30 29 28 27 26 26 26 26 26 26 27 27 27 28 29 29 29 30 30 30 31 32 32 33 34 35 35 35 35 35 34 33 32 31 30 31 31 32 33 34 34 34 33 32 31 31 33 35 37 39 38 38 38 41 43
20 21 22 23 25 27 29 31 32 32 32 31 31 30 29 28 27 27 27 27 28 28 29 29 29 29 29 29 29 29 29 29 29 30 30 31 32 32 33 33 33 33 33 33 33 32 31 31 31 32 33 34 35 36 36 36 35 34 34 35 36 38 39 39 36 35 36 39 40
22 23 24 26 28 29 31 32 32 31 30 29 28 27 27 27 27 27 27 28 28 28 27 27 27 27 27 27 27 27 27 27 28 28 29 30 30 30 31 31 32 32 32 32 32 32 31 31 31 32 32 32 33 33 33 33 34 35 37 38 40 40 39 35 31 30 32 35 36
24 25 27 28 29 31 31 31 30 28 27 26 25 25 25 25 25 25 26 25 25 24 23 22 22 22 22 22 23 24 24 25 26 26 27 27 28 28 29 30 31 31 31 31 30 30 29 29 28 29 29 29 30 31 31 32 33 34 36 38 40 39 36 31 28 26 26 29 33
26 27 28 29 30 30 30 29 27 25 24 23 22 22 22 22 22 22 21 21 20 19 18 18 18 18 19 19 20 21 22 22 23 24 25 26 27 28 29 30 30 29 29 28 28 27 26 26 25 26 27 28 29 30 31 31 31 32 33 33 32 29 26 23 21 21 23 25 27
26 27 28 29 29 28 27 25 23 22 20 20 19 18 18 18 18 17 17 16 16 15 15 16 16 17 18 19 20 20 21 22 23 24 26 27 28 29 30 30 29 28 28 27 26 25 24 23 23 24 26 28 30 31 31 31 32 32 30 27 22 18 14 11 15 19 22 23 22
25 26 27 27 26 25 23 21 20 18 17 16 15 14 14 15 15 14 14 14 14 15 16 17 18 20 21 22 22 23 24 25 26 27 28 29 29 30 30 29 29 28 28 27 25 24 22 22 23 25 27 28 29 30 31 31 32 31 28 24 19 17 18 19 21 22 22 20 18
23 24 24 24 23 22 20 19 17 16 15 14 13 13 13 13 14 14 15 16 18 20 21 23 24 25 26 26 27 27 28 28 29 29 30 30 30 30 29 29 29 29 28 27 25 23 21 21 23 24 25 27 27 28 29 30 30 29 27 25 24 23 23 22 20 18 16 14 12
22 22 22 21 20 19 18 17 15 14 14 13 13 13 14 14 15 17 20 22 25 26 27 28 28 29 29 30 30 30 30 31 31 31 31 31 31 31 30 30 29 29 27 25 22 19 18 18 19 21 22 23 24 24 24 25 25 24 24 24 24 23 22 20 17 14 12 12 13
21 21 20 19 18 17 16 15 14 14 14 14 14 14 15 17 19 22 25 28 30 31 31 31 31 31 31 32 32 31 31 32 32 32 32 32 32 31 30 29 28 26 23 21 17 15 14 14 15 16 17 18 18 18 18 18 18 18 18 18 19 20 20 19 17 15 14 15 17
21 20 19 18 17 16 15 15 15 15 15 15 16 16 17 20 23 26 30 32 33 34 34 33 32 32 31 31 31 31 31 31 31 31 31 31 31 30 28 26 23 20 18 16 14 13 12 12 13 13 14 14 14 13 13 14 14 15 16 16 16 18 19 19 19 18 19 19 21
20 19 18 17 16 16 16 16 16 16 16 17 18 19 21 24 28 31 33 34 35 34 33 32 31 31 30 30 30 30 29 29 29 28 28 28 27 26 24 22 20 18 17 17 16 16 16 16 15 14 13 13 13 12 13 13 15 16 17 15 15 15 15 16 16 17 18 18 19
19 18 17 17 17 17 17 17 17 17 18 19 20 23 25 28 32 34 35 35 33 32 30 29 28 28 28 28 28 27 27 27 26 26 25 25 24 24 23 22 22 22 22 23 22 22 21 19 18 17 15 15 14 14 14 14 15 14 14 13 13 13 13 14 14 15 15 16 15
17 16 16 17 17 18 18 18 18 19 20 22 24 26 29 32 34 35 34 31 30 28 27 26 26 26 26 26 26 25 25 25 25 24 24 23 23 24 24 25 25 26 26 26 25 23 22 20 18 18 17 17 17 16 16 15 15 15 15 16 16 16 17 17 16 16 16 16 16
16 16 17 17 18 18 18 19 19 21 22 24 27 29 31 33 34 33 31 29 27 27 26 26 26 26 26 25 25 25 24 24 24 24 24 24 24 25 26 26 27 27 27 26 25 23 22 20 20 20 20 20 19 19 19 19 19 19 19 20 20 21 21 21 20 20 20 19 19
18 18 18 18 19 19 19 20 21 22 25 27 29 31 33 33 33 32 31 29 28 28 27 27 27 26 26 25 25 24 24 23 23 24 24 25 25 25 26 26 26 26 25 25 24 23 23 22 22 22 22 21 21 21 21 21 22 22 23 23 24 24 24 24 24 24 23 23 23
19 19 19 19 20 20 20 21 23 25 27 29 31 32 32 33 32 32 31 30 30 29 28 27 27 26 26 25 24 24 23 23 23 23 23 24 24 24 24 24 24 24 23 23 22 22 22 21 21 21 21 21 21 21 22 22 22 23 24 24 25 25 25 25 25 24 24 24 23
20 20 20 20 20 20 21 22 24 27 29 30 31 32 32 32 32 31 30 30 29 29 28 27 26 25 24 24 23 22 22 21 21 21 21 22 22 22 22 21 21 21 21 20 20 20 20 20 20 20 21 21 21 21 21 22 23 23 24 25 25 25 25 24 24 23 22 21 20
20 20 20 20 19 20 22 24 26 28 29 30 31 31 31 31 30 30 29 29 28 27 26 25 24 23 22 22 21 21 20 20 19 19 19 19 19 20 20 20 19 19 19 19 19 19 20 20 20 20 21 21 21 22 22 23 24 24 25 25 25 25 24 23 22 21 19 18 17
19 19 19 18 19 21 24 26 28 29 30 30 30 30 30 30 29 29 28 27 25 24 23 22 21 20 20 19 19 19 18 18 17 17 17 18 18 19 19 19 19 19 19 20 20 20 20 20 21 21 21 22 22 23 24 24 25 26 27 27 27 26 25 24 22 20 18 17 16
18 17 17 18 20 23 25 27 29 29 29 29 29 29 29 28 28 27 25 23 21 20 19 19 18 18 18 17 17 17 17 17 17 17 17 18 19 19 20 20 20 20 20 20 21 21 21 21 21 21 22 22 23 23 24 25 26 27 28 28 28 27 26 25 23 22 20 18 17
16 16 17 20 22 25 27 28 29 29 29 28 28 28 27 27 26 24 22 19 18 17 17 17 17 18 17 17 17 17 16 17 17 18 19 20 20 21 22 22 22 21 21 21 21 21 21 20 20 20 21 21 22 23 24 25 26 27 27 28 27 27 26 25 24 23 21 19 18
14 16 19 22 24 26 27 28 29 28 28 27 26 26 25 24 22 20 18 16 16 16 16 17 18 19 19 19 19 18 18 18 18 19 20 21 22 23 23 23 24 23 22 21 20 20 20 20 20 20 20 21 22 23 24 25 26 26 27 27 26 26 25 25 24 23 21 20 18
15 18 21 24 25 27 27 28 27 27 26 25 24 23 22 20 19 17 16 16 16 17 18 19 20 20 21 21 21 20 20 19 19 19 20 20 21 22 23 23 24 24 24 22 21 20 20 20 20 20 21 22 22 23 25 25 26 26 26 26 25 25 24 24 23 22 21 19 18
17 20 23 25 26 27 27 27 26 25 24 23 22 20 19 18 17 17 17 17 18 19 20 20 21 22 22 22 22 22 21 20 20 19 19 19 19 20 21 22 24 25 25 23 22 21 21 21 21 22 23 23 24 25 26 26 26 26 26 26 25 25 24 24 23 22 20 19 18
20 24 26 26 27 26 26 25 24 23 22 21 20 18 17 17 17 17 18 18 19 20 21 21 22 22 23 23 23 22 21 20 19 18 17 17 17 18 19 21 24 26 26 25 23 22 21 22 22 23 24 25 26 26 26 26 26 26 26 26 25 25 25 25 24 22 20 19 18
24 26 27 27 26 26 25 23 22 21 19 19 18 17 17 17 18 19 19 19 19 20 20 21 22 22 22 23 23 22 21 19 18 17 16 16 17 18 20 22 24 26 26 25 23 22 22 22 23 24 25 26 26 26 26 26 25 25 25 25 25 25 25 25 25 24 22 20 20
27 28 27 26 25 24 22 21 19 18 17 17 17 17 18 18 19 19 19 19 19 19 20 20 21 21 22 22 22 22 21 19 18 17 17 18 19 20 22 24 25 25 25 24 24 23 23 23 24 25 26 27 27 26 26 25 25 25 25 25 25 26 26 26 26 25 24 22 21
28 28 27 25 23 21 19 18 17 16 16 17 17 18 18 19 19 19 19 19 19 19 19 20 20 21 22 22 22 22 21 20 19 19 19 20 21 22 24 25 25 25 24 24 24 23 24 24 25 26 27 28 27 27 26 25 24 24 25 25 26 26 27 27 28 27 26 24 22
27 27 26 23 21 19 17 15 15 16 16 17 18 18 18 19 19 19 19 19 19 19 19 19 20 21 22 22 22 22 21 20 20 20 21 21 22 23 24 25 25 24 24 24 24 24 24 25 25 26 27 28 28 28 27 26 25 25 25 25 26 27 28 29 29 29 28 26 24
26 25 23 21 18 16 15 14 15 16 17 18 18 18 18 19 19 19 19 18 18 18 18 19 20 21 22 22 22 22 21 20 20 20 20 21 21 22 23 24 24 24 25 24 24 24 24 25 25 25 26 27 27 28 28 27 26 25 25 26 27 28 29 29 30 30 29 28 26
25 23 20 18 16 14 14 14 15 17 18 18 18 18 18 18 18 18 18 18 18 18 18 19 20 21 22 22 22 22 21 20 20 20 20 21 22 22 23 24 24 24 24 24 24 24 24 24 24 24 24 25 25 26 27 27 27 26 26 26 27 28 29 29 30 30 30 29 28
23 20 17 15 14 13 14 15 16 17 17 18 18 18 18 17 17 17 17 17 18 18 19 20 21 21 21 22 22 22 21 20 20 20 20 21 22 22 22 23 23 23 22 22 22 23 23 24 24 23 23 23 23 24 25 25 26 26 26 27 27 28 28 29 29 29 29 29 30
19 17 15 14 14 14 14 15 15 16 16 17 18 18 18 17 17 16 17 17 18 19 20 21 21 21 21 22 22 22 21 21 20 20 20 21 21 21 21 21 20 20 19 20 20 21 21 22 22 22 22 22 22 22 23 23 24 26 26 27 28 28 28 28 28 28 29 29 30
16 14 13 14 14 14 14 14 14 15 16 18 18 18 17 16 16 16 17 17 18 19 20 20 21 21 21 21 21 21 21 20 20 20 20 20 20 19 19 19 19 18 18 18 18 19 20 20 21 21 21 22 22 22 23 23 25 26 27 27 27 27 27 27 27 28 28 29 30
14 13 13 14 14 13 13 13 14 15 17 18 18 17 16 16 16 16 17 17 18 19 19 20 20 20 21 21 21 21 20 20 20 20 19 19 19 19 19 19 19 19 19 19 19 19 20 20 21 21 22 23 23 24 24 25 26 27 27 27 27 27 27 27 27 28 29 30 31
13 12 12 13 13 12 12 12 13 15 17 17 18 17 16 16 16 16 16 17 18 18 19 19 20 20 20 20 20 20 20 20 20 20 20 20 20 20 20 21 21 21 22 22 22 22 22 22 23 23 24 24 24 25 25 26 26 26 26 26 26 26 27 27 28 28 29 30 31
12 11 11 11 11 11 11 12 13 14 16 16 17 17 16 16 16 16 16 17 18 18 19 19 20 20 20 20 19 19 19 20 21 21 22 22 22 21 21 21 22 23 23 24 24 25 25 25 25 25 25 24 24 23 24 25 25 25 24 25 25 26 27 28 29 30 30 30 29
Wind_Direction
325 318 314 315 316 318 317 315 313 313 313 313 313 313 313 314 315 315 314 312 309 306 304 302 299 297 294 292 290 289 289 289 290 290 291 291 292 292 292 291 291 290 290 290 290 289 289 289 288 288 287 285 283 281 278 276 275 274 273 272 270 269 268 266 264 262 260 259 256
322 318 317 318 321 323 321 318 316 316 315 314 314 314 315 315 315 315 313 310 307 305 303 302 300 299 298 298 298 298 298 298 297 297 297 297 297 297 296 296 295 294 294 293 292 291 290 290 289 287 286 284 282 280 278 276 275 275 276 275 274 272 270 266 263 260 259 258 256
323 321 320 320 322 323 322 320 318 317 317 316 316 316 316 316 315 313 311 309 307 305 304 303 302 302 302 302 302 303 304 304 303 303 302 302 301 301 300 299 298 297 296 294 293 292 290 289 288 286 285 284 282 280 278 277 276 277 277 277 276 273 269 265 261 259 258 257 257
320 320 320 321 322 322 321 321 320 320 320 320 319 318 317 315 314 312 311 309 307 306 305 304 303 302 302 302 302 303 304 305 306 306 305 305 304 303 302 301 300 298 296 294 292 291 289 288 288 287 287 287 286 284 282 281 279 278 276 274 273 271 268 265 262 260 258 258 258
319 319 320 321 321 321 321 322 323 323 323 322 321 319 318 316 314 313 311 309 308 306 305 304 303 302 302 302 303 304 305 307 307 308 307 306 305 304 302 300 298 296 294 292 291 290 289 290 291 293 294 294 294 293 291 288 284 281 277 275 273 271 270 268 266 263 261 260 260
320 320 320 321 321 322 323 324 325 325 325 325 324 322 319 317 315 313 312 311 310 309 308 307 306 306 306 306 307 307 308 308 308 307 306 304 302 300 298 297 295 294 293 291 290 290 292 295 298 300 300 300 299 297 295 292 289 286 283 281 279 277 274 271 270 268 265 262 261
321 321 322 323 324 325 326 327 328 329 330 329 326 323 320 318 317 316 315 315 316 317 317 317 315 314 313 312 311 310 308 307 305 304 302 300 298 297 296 295 294 293 292 292 293 295 297 301 303 303 301 298 294 291 289 288 287 287 287 286 284 281 277 273 271 271 268 264 262
322 323 324 326 328 330 332 332 333 334 333 329 326 323 322 322 322 322 322 324 327 329 330 328 326 323 319 315 312 310 307 305 303 301 300 299 297 296 296 295 295 294 294 294 296 299 302 304 304 301 296 291 287 284 283 283 284 286 287 287 286 284 280 274 271 271 270 266 263
327 327 328 330 333 336 338 337 336 333 330 328 327 327 328 329 329 330 332 334 335 335 333 331 327 322 318 314 311 308 306 304 302 301 299 299 298 297 296 295 294 294 295 296 298 300 302 303 300 295 289 286 285 285 285 285 285 286 287 288 290 290 286 274 275 278 278 274 270
333 333 333 333 336 338 338 335 332 329 328 330 328 330 333 334 335 337 338 337 334 331 329 326 322 317 313 311 308 306 304 302 301 300 299 299 298 297 296 295 295 295 296 297 298 299 300 298 293 288 286 286 287 288 289 289 288 287 287 289 290 288 285 284 287 289 289 285 282
337 337 337 337 336 334 330 328 327 327 327 327 329 332 336 337 338 337 336 333 331 329 326 323 319 316 313 310 308 307 306 305 304 303 302 301 300 299 298 298 297 297 297 298 299 298 296 292 287 285 285 286 287 289 289 290 289 288 287 287 286 287 290 294 297 296 292 286 283
338 338 337 335 331 327 325 325 328 329 328 328 332 335 337 337 336 333 332 332 330 329 326 323 319 316 314 312 312 311 311 310 309 308 306 305 304 302 301 299 299 299 298 298 298 297 294 290 285 284 284 285 287 288 290 290 290 289 287 286 287 289 293 298 300 296 287 279 276
335 335 333 329 326 324 325 327 328 327 327 330 331 331 331 332 331 331 331 330 330 328 326 323 320 317 315 315 314 314 314 314 314 313 311 310 308 306 304 302 301 300 298 296 297 296 294 292 288 286 285 287 289 292 293 294 294 294 293 293 294 296 298 299 297 293 287 283 280
329 329 328 326 326 326 325 326 324 323 323 324 325 324 325 327 328 329 330 330 330 329 326 324 321 318 317 316 316 317 318 319 318 317 316 314 312 310 308 307 305 304 303 302 302 303 302 301 299 297 295 296 298 301 304 304 302 301 302 303 304 302 299 297 294 292 290 290 287
326 325 325 324 324 323 322 321 320 320 320 321 321 321 322 324 327 329 330 331 331 330 328 324 321 319 319 319 320 321 322 323 322 321 320 318 317 315 314 313 314 316 317 318 317 316 314 312 311 310 309 307 307 309 309 306 300 298 299 302 303 302 299 297 295 294 295 295 295
324 323 322 321 320 319 318 318 317 318 319 320 320 321 322 324 327 329 331 333 332 331 328 326 324 323 323 324 325 326 326 326 325 324 323 322 321 319 319 319 320 321 322 321 320 319 317 314 312 311 311 310 310 310 309 305 300 300 304 309 312 311 309 307 305 304 302 301 301
323 321 319 317 316 316 317 317 317 317 318 320 322 324 326 327 329 332 335 336 335 333 331 330 330 330 329 329 329 329 329 328 327 326 326 325 323 322 322 321 321 321 321 321 320 319 317 314 312 311 311 310 310 311 311 310 310 311 314 318 321 320 319 318 316 315 313 311 310
321 318 315 313 314 315 317 318 319 320 322 325 327 329 330 332 334 337 339 339 338 337 336 335 334 333 333 332 331 331 330 329 328 327 326 325 324 324 324 324 324 323 323 323 322 321 319 317 316 315 314 314 314 315 316 316 316 317 318 319 321 322 323 323 322 322 321 321 319
318 315 314 315 315 317 319 321 323 326 328 330 332 333 334 336 338 339 340 339 338 338 336 335 334 333 333 333 332 332 331 330 328 327 326 325 325 325 325 326 326 326 326 325 324 324 322 322 321 321 321 321 321 321 321 321 321 321 321 322 322 323 324 325 325 324 324 324 323
317 316 316 317 317 318 320 323 327 330 333 334 336 337 337 338 338 338 338 337 336 335 334 334 333 333 333 333 332 332 331 330 328 327 327 327 327 328 328 329 329 329 328 328 328 328 328 328 329 329 330 330 330 330 329 329 330 331 332 331 332 332 331 331 330 329 328 327 327
317 317 317 318 318 320 323 327 331 334 336 337 338 338 338 337 336 335 335 334 333 333 333 333 333 333 333 333 332 331 330 330 330 330 330 330 332 332 333 333 333 332 332 332 333 334 336 337 338 339 340 340 340 340 340 340 341 341 342 341 341 341 340 339 338 337 336 335 335
317 317 316 316 319 323 327 330 334 336 337 338 338 337 336 335 333 332 332 331 332 332 333 334 335 336 335 334 333 332 331 332 333 334 336 337 339 340 340 339 338 338 338 339 340 341 343 344 345 346 347 347 346 346 345 345 344 344 343 342 342 342 342 342 342 342 341 342 342
316 315 315 318 322 326 330 333 335 337 337 337 336 335 334 332 330 330 330 331 332 334 336 338 340 340 340 338 337 336 336 337 340 343 345 346 347 348 347 346 344 344 344 345 346 347 347 348 348 347 347 346 345 344 343 342 341 340 339 338 338 338 338 339 339 339 338 337 335
314 314 317 322 327 330 333 334 335 336 336 336 335 333 331 330 329 329 331 334 337 340 343 346 348 348 348 346 345 345 345 346 348 350 352 352 353 353 352 350 348 347 347 347 348 348 347 347 346 344 343 341 340 339 338 337 336 335 335 334 334 334 334 334 335 335 333 331 327
313 316 323 329 333 334 335 335 335 335 335 334 333 331 330 329 330 332 335 341 346 351 354 357 358 358 358 357 356 355 355 354 354 354 354 354 354 354 354 353 350 348 347 347 347 346 344 343 342 340 338 337 336 335 334 333 332 332 331 331 331 331 331 331 332 332 331 329 327
317 325 332 335 336 336 335 335 334 334 333 332 332 331 331 332 334 338 344 352 358 2 4 5 5 5 4 3 2 0 358 357 355 354 354 353 353 353 353 353 351 349 348 347 345 343 341 339 338 336 335 334 332 331 331 330 329 329 329 330 330 330 330 330 329 329 329 328 328
329 335 338 338 337 336 335 334 334 333 332 332 333 334 336 338 343 349 355 2 6 8 8 8 7 6 4 2 0 358 356 355 354 353 353 353 352 352 352 350 347 345 345 344 342 340 338 336 335 334 333 332 331 331 330 330 330 330 330 331 331 331 331 329 328 327 326 326 327
336 339 339 338 337 336 335 334 333 333 333 334 336 339 343 348 354 359 2 4 6 7 7 6 5 3 2 359 357 355 353 352 351 351 351 351 350 349 347 343 340 340 340 340 338 336 334 333 332 331 330 330 330 330 330 330 330 331 332 333 334 333 332 331 328 326 325 324 325
338 338 339 338 337 336 335 334 334 335 337 339 343 347 353 359 3 4 4 3 4 5 5 3 2 0 359 356 354 352 351 350 349 348 348 347 345 342 338 335 333 334 335 336 335 332 330 329 328 327 326 327 327 327 327 328 329 330 332 334 334 334 334 332 330 326 323 321 320
337 338 339 339 337 335 335 335 337 340 343 347 351 356 1 4 6 5 2 1 1 1 0 359 358 356 354 352 350 349 349 348 347 345 344 342 338 334 331 329 328 329 331 333 332 330 327 325 324 323 323 323 323 323 323 324 325 327 329 331 332 332 333 333 331 328 322 317 313
336 338 339 338 336 335 336 339 343 348 353 356 359 2 3 5 4 2 359 357 356 356 356 355 353 351 349 347 345 344 345 345 344 342 339 335 331 328 326 325 325 326 328 329 329 327 324 322 321 320 320 320 319 318 317 318 320 322 324 326 327 328 330 331 332 330 325 317 309
337 337 337 336 336 337 341 345 351 356 359 1 2 2 3 2 1 358 355 353 352 352 351 350 348 346 344 342 340 338 338 338 338 335 332 329 327 325 323 322 323 324 325 326 325 323 321 319 318 319 318 318 316 314 312 312 313 316 318 321 323 324 326 328 331 331 329 322 313
337 336 336 337 338 341 346 352 357 360 0 1 1 1 1 359 357 354 352 351 349 349 348 346 345 343 341 338 336 333 331 330 329 327 326 325 324 323 323 323 323 323 323 323 321 319 318 317 317 318 319 318 317 314 311 309 310 312 314 318 320 322 324 326 328 330 330 328 322
336 336 337 339 342 345 350 355 358 360 0 360 360 359 357 355 353 352 351 350 349 347 346 344 342 341 339 338 335 332 329 327 325 325 325 325 325 324 324 324 324 324 323 322 320 319 318 318 318 319 319 319 318 316 314 312 311 312 314 317 319 321 323 324 326 327 328 328 327
335 336 338 342 346 350 353 356 359 0 0 358 356 353 351 350 350 349 349 348 347 345 343 341 339 338 339 339 338 337 334 332 330 329 329 328 327 327 326 326 325 325 324 323 322 322 321 320 319 319 318 318 318 317 316 315 315 315 316 318 320 321 323 323 324 325 325 326 327
335 336 340 346 350 354 357 359 0 0 358 354 350 347 346 346 347 347 345 343 342 340 338 337 337 337 338 340 342 342 341 340 337 335 332 331 330 329 328 327 326 326 325 325 324 323 322 321 319 318 317 317 316 316 316 316 316 317 318 319 320 321 321 322 322 322 323 324 326
335 338 344 350 354 358 359 0 359 356 350 346 343 342 342 343 344 344 342 340 338 337 336 336 336 336 337 338 341 342 342 341 339 337 335 334 333 332 331 329 328 328 327 326 325 323 322 321 320 319 318 318 318 317 317 317 317 317 318 319 319 319 319 319 319 320 321 322 325
335 341 349 355 358 359 359 357 352 347 342 340 340 341 341 342 342 342 341 339 338 337 336 336 336 336 336 336 337 337 336 337 337 337 337 338 337 335 334 333 332 330 329 328 326 325 323 322 321 320 321 322 322 321 320 319 319 318 318 318 317 317 317 316 317 318 319 321 324
337 346 355 359 358 356 353 348 342 340 339 339 340 341 341 341 341 340 340 338 337 336 336 335 335 336 336 335 334 333 333 333 335 337 338 340 339 337 336 336 336 334 333 331 330 328 326 325 324 324 325 326 326 325 323 321 319 318 318 317 316 315 315 315 316 318 319 321 324
342 352 358 358 353 347 341 337 335 336 338 340 342 341 341 340 339 338 337 336 335 334 334 334 334 335 335 335 334 334 333 332 333 335 337 338 337 336 336 336 336 336 334 333 332 331 330 330 330 329 329 328 327 325 323 320 319 318 317 316 315 314 314 315 316 318 320 322 324
347 354 355 350 343 336 331 329 331 335 339 342 342 341 339 338 336 335 333 333 332 332 332 332 332 333 334 334 333 333 332 329 329 331 332 333 332 332 332 333 334 334 334 333 334 334 334 333 333 332 331 330 327 324 321 319 318 317 316 315 315 315 315 316 317 319 320 322 324